Location: Bois de la Silve
(44.4667°N, 6.7833°E)
Time: 20:57:32
(UTC+00:00)

COSMOS 2406 - Pass Details

Date: 14 July 2020
Orbit: 844 x 862 km, 71.0° (Epoch: 14 August)

Event Time Altitude Azimuth Distance (km) Brightness Sun altitude
Exits shadow 00:49:36 39° 160° (SSE) 1,274 3.7 -21.9°
Maximum altitude 00:51:22 53° 109° (ESE) 1,051 3.6 -21.9°
Drops below altitude 10° 00:56:57 10° 34° (NE) 2,508 6.7 -21.5°
Sets 00:59:27 0° 30° (NNE) 3,448 7.8 -21.4°
